Zurück zum Katalog

STARLINK-38039

AktivKommunikationSSO
NORAD 69719·PAYLOAD·🇺🇸 United States

Gestartet Jun 28, 2026 von Vandenberg Space Force Base

Loading…

Nächste Überflüge (nächste 24 Stunden)

TLE

AktuellSource: CelesTrak SupGP

Epoche: Sep 15, 2026, 03:15 UTC

1 69719C 26147R   26258.13590278 -.00016448  00000+0 -51056-3 0  2582
2 69719  97.2834 294.5962 0000894  98.8132 242.7527 15.33449343    15

Verfolge STARLINK-38039 in Echtzeit mit AllMySat

Download on the App Store